COSMOS 2251 DEB, 47069

Orbit data source: Space-Track

COSMOS 2251 DEB, 47069 is space debris in LEO originally from a launch on Wed, 16 Jun 1993 UTC launched from the Plesetsk Missile And Space Complex (PKMTR). The debris from Iridium 33, an American commercial communications satellite, has been tracked extensively since its accidental collision with the defunct Russian satellite Cosmos 2251 in 2009. This event, occurring at high speed in low Earth orbit (LEO), generated thousands of pieces of space debris, significantly increasing the risk of further collisions. The Iridium 33 debris cloud has impacted space traffic management and orbital debris mitigation strategies, making it a subject of ongoing study in space situational awareness.

Loading next visibility...
Identifier
47069, 1993-036BXZ
Orbit
LEO
Country
Flag of CISCIS
Related business
Manufacturer
Unknown
Mission
Spacecraft
Bus & Motor
Unknown
Mass
Unknown
Launch date (UTC)
1993-06-16 (33 years ago)
Launch vehicle
Unknown
Launch site
Plesetsk Missile And Space Complex (PKMTR)
Object type
Payload
Rocket body
Debris
Shape & HBR
Unknown shape, 0.1 m
Radar Cross Section
Small (<0.1 m²)

Expand to show TLE details & history
Last TLE update: 2 weeks ago

TLE from 2 weeks ago
0 COSMOS 2251 DEB
1 47069U 93036BXZ 26222.05930436  .00009626  00000-0  10091-2 0  9997
2 47069  74.0118 354.4728 0003763 316.5923  43.4961 14.89649732760665
Epoch: 2026-08-10T01:25Z
TLE epoch observation values (Epoch: 2026-08-10T01:25:23.896Z)
Latitude
-0.00008°
Longitude
14.57583°
Altitude
599.799 km
Speed
7.561 km/s
True Right ascension
23h 37m 53s
True Declination
0° 00' 00"
Sunlit
Object was in full shadow at epoch
Visualization orbit readout
Latitude
Unknown
Longitude
Unknown
Altitude
Unknown
Speed
Unknown
Apparent Right ascension
Unknown
Apparent Declination
Unknown
Sunlit
N/A
Visualization observer readout
Local Sidereal Time
15:31:34
Azimuth
Unknown
Elevation
Unknown
Doppler factor
Unknown
Orbital elements
Apogee altitude
599.221 km
Perigee altitude
593.972 km
Semi-major axis
6,974.733 km
Eccentricity
0.00038
Inclination
74.0118°
RAAN
354.4728°
Arg. of periapsis
316.5923°
True anomaly
43.52579°
Mean anomaly
43.4961°
Eccentric anomaly
43.51094°
Mean motion
3.72608 °/min
Orbital period
96.62 mins
BSTAR
0.0010091
Loading maneuver chart data...
Computing Atmospheric mass density...

Documentation

Showing up to 5 results
|